This is the latest recevied weather packets stored in our database for station/object PY2XH-13. If no packets are shown the sender has not sent any weather packets the latest 10 day(s).
| Time | Temp. | Humidity | Pressure | Rain* | Wind** | Luminosity | Snow |
|---|---|---|---|---|---|---|---|
| 1777790765 | 22.78° C | 63% | 1032.9 hPa | - | - | - | - |
| 1777788965 | 23.33° C | 60% | 1032.7 hPa | - | - | - | - |
| 1777787165 | 23.33° C | 59% | 1033.3 hPa | - | - | - | - |
| 1777785364 | 23.33° C | 57% | 1033.4 hPa | - | - | - | - |
| 1777783564 | 23.33° C | 55% | 1033.6 hPa | - | - | - | - |
| 1777781765 | 23.33° C | 54% | 1033.7 hPa | - | - | - | - |
| 1777779965 | 23.33° C | 53% | 1033.4 hPa | - | - | - | - |
| 1777778165 | 23.89° C | 52% | 1033.4 hPa | - | - | - | - |
| 1777776365 | 23.89° C | 51% | 1033.4 hPa | - | - | - | - |
| 1777774565 | 23.33° C | 50% | 1034.1 hPa | - | - | - | - |
| 1777772764 | 23.33° C | 49% | 1034.4 hPa | - | - | - | - |
| 1777770965 | 23.89° C | 51% | 1034.4 hPa | - | - | - | - |
| 1777769164 | 23.89° C | 52% | 1034.3 hPa | - | - | - | - |
| 1777767365 | 24.44° C | 54% | 1034.3 hPa | - | - | - | - |
| 1777765564 | 24.44° C | 53% | 1034.1 hPa | - | - | - | - |
| 1777763765 | 24.44° C | 53% | 1034.2 hPa | - | - | - | - |
| 1777761965 | 24.44° C | 55% | 1034.1 hPa | - | - | - | - |
| 1777760164 | 24.44° C | 55% | 1033.6 hPa | - | - | - | - |
| 1777758364 | 24.44° C | 55% | 1033.5 hPa | - | - | - | - |
| 1777756564 | 24.44° C | 54% | 1033.6 hPa | - | - | - | - |
| 1777754764 | 24.44° C | 57% | 1033.8 hPa | - | - | - | - |
| 1777752965 | 24.44° C | 59% | 1033.9 hPa | - | - | - | - |
| 1777751165 | 24.44° C | 60% | 1033.7 hPa | - | - | - | - |
| 1777749365 | 24.44° C | 60% | 1033.6 hPa | - | - | - | - |
| 1777747564 | 25° C | 62% | 1033.1 hPa | - | - | - | - |
* Rain since midnight (hover to see other rain measurements)
** Current wind speed in m/s (hover to see current wind gust speed)